Weather History for Santa Monica, CA

Change the Weather History Date:

Wednesday, June 20, 2012

  Actual Average Record
Temperature  
Mean Temperature 64 °F -  
Max Temperature 69 °F 77 °F 99 °F (1973)
Min Temperature 61 °F 59 °F 50 °F (1944)
Growing Degree Days 14 (Base 50)    
Moisture  
Dew Point 55 °F    
Average Humidity 74    
Maximum Humidity 84    
Minimum Humidity 63    
Precipitation  
Precipitation 0.00 in - - ()
Sea Level Pressure  
Sea Level Pressure 29.85 in    
Wind  
Wind Speed 3 mph (SW)    
Max Wind Speed 12 mph    
Max Gust Speed -    
Visibility 9 miles    
Events      
Averages and records for this station are not official NWS values.
T = Trace of Precipitation, MM = Missing Value Source: NWS Daily Summary

Daily Weather History Graph

Daily Weather History Graph

Search for Another Location

Airport:

Trip Planner

Search our weather history database for the weather conditions in past years. The results will help you decide how hot, cold, wet, or windy it might be!

Date:

Astronomy

Jun. 20, 2012 Rise Set
Actual Time 5:42 AM PDT 8:08 PM PDT
Civil Twilight 5:13 AM PDT 8:37 PM PDT
Nautical Twilight 4:37 AM PDT 9:13 PM PDT
Astronomical Twilight 3:58 AM PDT 9:52 PM PDT
Moon 6:44 AM PDT (6/20) 9:01 PM PDT (6/20)
Length of Visible Light 15h 23m
Length of Day
14h 25m
New Moon, 1% of the Moon is Illuminated
Jun 20
New Moon
Jun 26
First Quarter
Jul 3
Full
Jul 10
Last Quarter
Jul 18
New

Hourly Weather History & Observations

Time (PDT) Temp. Dew Point Humidity Pressure Visibility Wind Dir Wind Speed Gust Speed Precip Events Conditions
12:51 AM 61.0 °F 54.0 °F 78% 29.84 in 10.0 mi Calm Calm - N/A   Overcast
1:51 AM 61.0 °F 54.0 °F 78% 29.84 in 10.0 mi Calm Calm - N/A   Overcast
2:51 AM 61.0 °F 54.0 °F 78% 29.83 in 10.0 mi Calm Calm - N/A   Overcast
3:51 AM 61.0 °F 53.1 °F 75% 29.83 in 10.0 mi Calm Calm - N/A   Overcast
4:51 AM 61.0 °F 53.1 °F 75% 29.84 in 10.0 mi Calm Calm - N/A   Overcast
5:51 AM 61.0 °F 54.0 °F 78% 29.84 in 10.0 mi Calm Calm - N/A   Overcast
6:51 AM 62.1 °F 54.0 °F 75% 29.85 in 9.0 mi Calm Calm - N/A   Overcast
7:51 AM 63.0 °F 54.0 °F 72% 29.86 in 7.0 mi Calm Calm - N/A   Overcast
8:51 AM 63.0 °F 54.0 °F 72% 29.87 in 8.0 mi Calm Calm - N/A   Overcast
8:58 AM 64.4 °F 53.6 °F 68% 29.87 in 7.0 mi Calm Calm - N/A   Overcast
9:51 AM 63.0 °F 55.0 °F 75% 29.86 in 8.0 mi SSW 4.6 mph - N/A   Overcast
10:51 AM 66.0 °F 55.0 °F 68% 29.86 in 9.0 mi Variable 5.8 mph - N/A   Overcast
11:24 AM 66.2 °F 55.4 °F 68% 29.87 in 9.0 mi WSW 8.1 mph - N/A   Scattered Clouds
11:51 AM 66.0 °F 55.0 °F 68% 29.87 in 10.0 mi WSW 9.2 mph - N/A   Scattered Clouds
12:51 PM 66.0 °F 55.0 °F 68% 29.87 in 10.0 mi WSW 11.5 mph - N/A   Partly Cloudy
2:51 PM 68.0 °F 55.0 °F 63% 29.85 in 10.0 mi SW 9.2 mph - N/A   Clear
3:51 PM 68.0 °F 55.0 °F 63% 29.83 in 10.0 mi WSW 9.2 mph - N/A   Clear
4:51 PM 68.0 °F 55.9 °F 65% 29.83 in 10.0 mi SW 10.4 mph - N/A   Clear
5:51 PM 66.9 °F 55.9 °F 68% 29.82 in 10.0 mi WSW 8.1 mph - N/A   Clear
6:51 PM 66.0 °F 55.9 °F 70% 29.82 in 10.0 mi Variable 6.9 mph - N/A   Clear
7:51 PM 64.0 °F 55.9 °F 75% 29.83 in 10.0 mi SW 6.9 mph - N/A   Clear
8:51 PM 63.0 °F 57.0 °F 81% 29.84 in 9.0 mi SW 6.9 mph - N/A   Clear
8:59 PM 62.6 °F 57.2 °F 82% 29.84 in 9.0 mi SW 8.1 mph - N/A   Scattered Clouds
9:51 PM 62.1 °F 57.0 °F 84% 29.86 in 9.0 mi SW 4.6 mph - N/A   Mostly Cloudy
10:38 PM 62.6 °F 57.2 °F 82% 29.86 in 8.0 mi SW 4.6 mph - N/A   Scattered Clouds
10:51 PM 62.1 °F 57.0 °F 84% 29.87 in 8.0 mi SW 6.9 mph - N/A   Mostly Cloudy
11:51 PM 62.1 °F 55.9 °F 80% 29.88 in 9.0 mi SW 6.9 mph - N/A   Overcast